Location: Feydey
(46.3431°N, 7.0106°E)
Time: 23:38:27
(UTC+00:00)

Cosmos 1603 - Pass Details

Date: 20 June 2021
Orbit: 832 x 858 km, 71.0° (Epoch: 23 July)

Event Time Altitude Azimuth Distance (km) Brightness Sun altitude
Exits shadow 23:45:53 30° 144° (SE) 1,462 4.5 -20.2°
Maximum altitude 23:47:39 38° 106° (ESE) 1,272 4.5 -20.1°
Drops below altitude 10° 23:52:49 10° 41° (NE) 2,467 6.9 -20.1°
Sets 23:55:24 0° 33° (NNE) 3,403 7.9 -20.0°
